Terug naar catalogus

LEASAT 5 PKM

SSUS-A

ActiefHEO
NORAD 20411·ROCKET BODY·🇺🇸 United States

Gelanceerd Jan 9, 1990 vanaf Cape Canaveral Space Force Station

Loading…

Volgende Passages (komende 24 uur)

TLE

VersSource: Space-Track

Epoch: Sep 14, 2026, 22:16 UTC

1 20411U 90002C   26257.92805295  .00090126  00000-0  12462-2 0  9996
2 20411  27.2629 160.8507 3678145 196.0739 148.2156  8.15821285745412

Volg LEASAT 5 PKM in realtime met AllMySat

Download on the App Store